Tucumcari, NM

11:52 AM MDT on April 26, 2017 (GMT -0600)
Tucumcari Municipal

Weather History for KTCC - February, 2013

Change the Weather History Date:

Sunday, February 24, 2013

  Actual Average Record
Temperature  
Mean Temperature 44 °F -  
Max Temperature 57 °F 61 °F 80 °F (1982)
Min Temperature 30 °F 29 °F 2 °F (1965)
Degree Days  
Heating Degree Days 22    
Moisture  
Dew Point 26 °F    
Average Humidity 64    
Maximum Humidity 93    
Minimum Humidity 19    
Precipitation  
Precipitation 0.18 in - - ()
Sea Level Pressure  
Sea Level Pressure 29.67 in    
Wind  
Wind Speed 15 mph (NNE)    
Max Wind Speed 39 mph    
Max Gust Speed 53 mph    
Visibility 6 miles    
Events Fog , Rain , Snow    
Averages and records for this station are not official NWS values.
T = Trace of Precipitation, MM = Missing Value Source: NWS Daily Summary

Daily Weather History Graph

Daily Weather History Graph

Search for Another Location

Airport or City:

Trip Planner

Search our weather history database for the weather conditions in past years. The results will help you decide how hot, cold, wet, or windy it might be!

Date:

Astronomy

Feb. 24, 2013 Rise Set
Actual Time 6:29 AM MST 5:45 PM MST
Civil Twilight 6:04 AM MST 6:11 PM MST
Nautical Twilight 5:34 AM MST 6:40 PM MST
Astronomical Twilight 5:05 AM MST 7:10 PM MST
Moon 4:59 PM MST (2/24) 5:27 AM MST (2/24)
Length of Visible Light 12h 07m
Length of Day
11h 15m
Waxing Gibbous, 99% of the Moon is Illuminated
Feb 24
Waxing Gibbous
Feb 25
Full
Mar 4
Last Quarter
Mar 11
New
Mar 19
First Quarter

Hourly Weather History & Observations

Time (MST) Temp. Windchill Dew Point Humidity Pressure Visibility Wind Dir Wind Speed Gust Speed Precip Events Conditions
12:53 AM 37.0 °F - 17.1 °F 44% 29.62 in 10.0 mi Calm Calm - N/A   Clear
1:53 AM 39.9 °F 34.5 °F 14.0 °F 35% 29.59 in 10.0 mi SW 8.1 mph - N/A   Clear
2:53 AM 41.0 °F 34.3 °F 18.0 °F 40% 29.56 in 10.0 mi West 11.5 mph - N/A   Clear
3:53 AM 42.1 °F 36.1 °F 19.0 °F 40% 29.55 in 10.0 mi WSW 10.4 mph - N/A   Clear
4:53 AM 42.1 °F 35.7 °F 18.0 °F 38% 29.57 in 10.0 mi West 11.5 mph - N/A   Clear
5:53 AM 36.0 °F 32.1 °F 19.0 °F 50% 29.61 in 10.0 mi SSW 4.6 mph - N/A   Clear
6:53 AM 33.1 °F 26.9 °F 19.9 °F 59% 29.62 in 10.0 mi South 6.9 mph - N/A   Clear
7:53 AM 43.0 °F 38.2 °F 23.0 °F 45% 29.62 in 10.0 mi SW 8.1 mph - N/A   Clear
8:53 AM 50.0 °F - 21.9 °F 33% 29.62 in 10.0 mi WSW 18.4 mph - N/A   Clear
9:53 AM 52.0 °F - 19.9 °F 28% 29.60 in 10.0 mi West 16.1 mph - N/A   Clear
10:53 AM 55.0 °F - 18.0 °F 23% 29.57 in 10.0 mi WSW 12.7 mph - N/A   Clear
11:53 AM 57.0 °F - 18.0 °F 22% 29.54 in 10.0 mi WNW 6.9 mph - N/A   Clear
12:53 PM 57.9 °F - 16.0 °F 19% 29.52 in 10.0 mi Variable 5.8 mph 19.6 mph N/A   Clear
1:53 PM 55.9 °F - 16.0 °F 21% 29.51 in 10.0 mi South 4.6 mph - N/A   Mostly Cloudy
2:53 PM 53.1 °F - 21.9 °F 30% 29.52 in 10.0 mi WSW 5.8 mph 32.2 mph 0.00 in Rain Light Rain
3:53 PM 50.0 °F - 28.0 °F 43% 29.56 in 6.0 mi NNE 28.8 mph 36.8 mph 0.00 in   Haze
4:02 PM 46.4 °F 37.2 °F 30.2 °F 53% 29.61 in 4.0 mi NNE 29.9 mph 39.1 mph N/A   Haze
4:13 PM 46.4 °F 37.4 °F 32.0 °F 57% 29.63 in 2.5 mi NE 28.8 mph 42.6 mph N/A   Haze
4:21 PM 44.6 °F 34.7 °F 33.8 °F 66% 29.65 in 5.0 mi NE 29.9 mph 36.8 mph 0.00 in Rain Light Rain
4:37 PM 42.8 °F 33.1 °F 33.8 °F 70% 29.67 in 5.0 mi NE 25.3 mph 41.4 mph 0.00 in Rain Light Rain
4:53 PM 41.0 °F 31.1 °F 35.1 °F 79% 29.64 in 5.0 mi NE 23.0 mph 38.0 mph 0.01 in Rain Light Rain
5:10 PM 39.2 °F 28.0 °F 33.8 °F 81% 29.68 in 4.0 mi NE 26.5 mph 35.7 mph 0.01 in Rain Light Rain
5:36 PM 37.4 °F 26.4 °F 33.8 °F 87% 29.70 in 8.0 mi NE 23.0 mph 32.2 mph 0.01 in Rain Light Rain
5:53 PM 37.0 °F 25.6 °F 34.0 °F 89% 29.69 in 9.0 mi ENE 24.2 mph 29.9 mph 0.01 in Rain Light Rain
6:53 PM 36.0 °F 23.7 °F 32.0 °F 86% 29.74 in 8.0 mi NE 26.5 mph 40.3 mph 0.00 in   Overcast
7:09 PM 35.6 °F 23.7 °F 30.2 °F 81% 29.75 in 1.8 mi NE 24.2 mph 38.0 mph 0.00 in Snow Light Snow
7:41 PM 33.8 °F 24.3 °F 30.2 °F 87% 29.78 in 1.0 mi NNE 13.8 mph 20.7 mph 0.01 in Snow Light Snow
7:48 PM 33.8 °F 25.8 °F 30.2 °F 87% 29.81 in 0.8 mi North 10.4 mph 25.3 mph 0.01 in Snow Light Snow
7:53 PM 34.0 °F 28.0 °F 30.0 °F 85% 29.82 in 0.8 mi Variable 6.9 mph 20.7 mph 0.02 in Snow Light Snow
8:20 PM 33.8 °F 21.9 °F 28.4 °F 81% 29.78 in 0.8 mi NE 21.9 mph 28.8 mph 0.02 in Snow Light Snow
8:53 PM 33.1 °F 21.5 °F 28.9 °F 85% 29.77 in 0.8 mi NE 19.6 mph 28.8 mph 0.06 in Snow Light Snow
9:31 PM 30.2 °F 15.9 °F 28.4 °F 93% 29.78 in 0.2 mi NNE 26.5 mph 41.4 mph 0.04 in Fog Light Freezing Fog
9:38 PM 30.2 °F 15.9 °F 28.4 °F 93% 29.78 in 0.5 mi NNE 26.5 mph 38.0 mph 0.04 in Fog Light Freezing Fog
9:53 PM 30.9 °F 15.9 °F 27.0 °F 85% 29.74 in 0.8 mi NE 31.1 mph 36.8 mph 0.05 in Snow Light Snow
10:15 PM 30.2 °F 15.4 °F 26.6 °F 86% 29.75 in 0.5 mi NE 28.8 mph 43.7 mph 0.00 in Fog , Snow Snow
10:32 PM 30.2 °F 13.5 °F 26.6 °F 86% 29.72 in 0.2 mi NE 39.1 mph 51.8 mph 0.01 in Fog , Snow Heavy Snow
10:39 PM 30.2 °F 13.7 °F 26.6 °F 86% 29.73 in 0.2 mi NE 38.0 mph 51.8 mph 0.02 in Fog , Snow Heavy Snow
10:53 PM 30.9 °F 14.5 °F 28.0 °F 89% 29.70 in 0.2 mi NE 39.1 mph 51.8 mph 0.03 in Fog , Snow Heavy Snow
11:10 PM 30.2 °F 14.1 °F 26.6 °F 86% 29.73 in 0.5 mi NNE 35.7 mph 52.9 mph 0.00 in Fog , Snow Light Snow
11:34 PM 32.0 °F 17.6 °F 26.6 °F 80% 29.77 in 2.0 mi NNE 29.9 mph 42.6 mph 0.00 in   Overcast
11:43 PM 32.0 °F 19.2 °F 24.8 °F 75% 29.79 in 7.0 mi NNE 23.0 mph 40.3 mph 0.00 in   Overcast
11:53 PM 32.0 °F 21.2 °F 25.0 °F 75% 29.77 in 10.0 mi NNE 16.1 mph 27.6 mph 0.00 in   Overcast